Time,TemperatureF,DewpointF,PressureIn,WindDirection,WindDirectionDegrees,WindSpeedMPH,WindSpeedGustMPH,Humidity,HourlyPrecipIn,Conditions,Clouds,dailyrainin,SoftwareType,DateUTC
2013-08-26 00:14:00,62.0,59.0,30.24,ENE,60,0.0,0.0,90,0.00,,,0.00,,2013-08-26 04:14:00,
2013-08-26 00:53:00,61.0,59.0,30.25,ENE,60,0.0,0.0,92,0.00,,,0.00,,2013-08-26 04:53:00,
2013-08-26 01:13:00,61.0,59.0,30.25,ENE,60,0.0,0.0,93,0.00,,,0.00,,2013-08-26 05:13:00,
2013-08-26 01:23:00,61.0,59.0,30.25,ENE,60,0.0,0.0,93,0.00,,,0.00,,2013-08-26 05:23:00,
2013-08-26 01:43:00,60.0,58.0,30.24,ENE,60,0.0,0.0,93,0.00,,,0.00,,2013-08-26 05:43:00,
2013-08-26 01:52:00,60.0,58.0,30.24,ENE,60,0.0,0.0,94,0.00,,,0.00,,2013-08-26 05:52:00,
2013-08-26 02:12:00,60.0,58.0,30.24,ENE,60,0.0,0.0,94,0.00,,,0.00,,2013-08-26 06:12:00,
2013-08-26 02:22:00,60.0,59.0,30.24,ENE,60,0.0,0.0,95,0.00,,,0.00,,2013-08-26 06:22:00,
2013-08-26 02:42:00,60.0,59.0,30.24,ENE,60,0.0,0.0,95,0.00,,,0.00,,2013-08-26 06:42:00,
2013-08-26 02:52:00,60.0,59.0,30.23,ENE,60,0.0,0.0,95,0.00,,,0.00,,2013-08-26 06:52:00,
2013-08-26 03:22:00,59.0,58.0,30.23,ENE,60,0.0,0.0,95,0.00,,,0.00,,2013-08-26 07:22:00,
2013-08-26 03:52:00,59.0,58.0,30.22,ENE,60,0.0,0.0,96,0.00,,,0.00,,2013-08-26 07:52:00,
2013-08-26 04:12:00,58.0,57.0,30.22,ENE,60,0.0,0.0,95,0.00,,,0.00,,2013-08-26 08:12:00,
2013-08-26 04:22:00,58.0,57.0,30.21,ENE,60,0.0,0.0,96,0.00,,,0.00,,2013-08-26 08:22:00,
2013-08-26 04:52:00,58.0,57.0,30.21,ENE,60,0.0,0.0,96,0.00,,,0.00,,2013-08-26 08:52:00,
2013-08-26 05:11:00,57.0,56.0,30.21,ENE,60,0.0,0.0,96,0.00,,,0.00,,2013-08-26 09:11:00,
2013-08-26 05:22:00,57.0,56.0,30.20,ENE,60,0.0,0.0,96,0.00,,,0.00,,2013-08-26 09:22:00,
2013-08-26 05:54:00,57.0,56.0,30.20,ENE,60,0.0,0.0,96,0.00,,,0.00,,2013-08-26 09:54:00,
2013-08-26 06:12:00,57.0,56.0,30.20,ENE,60,0.0,0.0,97,0.00,,,0.00,,2013-08-26 10:12:00,
2013-08-26 06:23:00,57.0,56.0,30.20,ENE,60,0.0,0.0,96,0.00,,,0.00,,2013-08-26 10:23:00,
2013-08-26 06:52:00,56.0,55.0,30.20,ENE,60,0.0,0.0,97,0.00,,,0.00,,2013-08-26 10:52:00,
2013-08-26 07:12:00,56.0,55.0,30.20,ENE,60,0.0,0.0,97,0.00,,,0.00,,2013-08-26 11:12:00,
2013-08-26 07:22:00,56.0,55.0,30.20,ENE,60,0.0,0.0,97,0.00,,,0.00,,2013-08-26 11:22:00,
2013-08-26 07:52:00,57.0,56.0,30.20,ENE,60,0.0,0.0,98,0.00,,,0.00,,2013-08-26 11:52:00,
2013-08-26 08:12:00,57.0,56.0,30.21,ENE,60,0.0,0.0,98,0.00,,,0.00,,2013-08-26 12:12:00,
2013-08-26 08:22:00,58.0,57.0,30.21,ENE,60,0.0,0.0,98,0.00,,,0.00,,2013-08-26 12:22:00,
2013-08-26 08:52:00,61.0,61.0,30.22,ENE,60,0.0,0.0,99,0.00,,,0.00,,2013-08-26 12:52:00,
2013-08-26 09:12:00,62.0,61.0,30.22,ENE,60,0.0,0.0,97,0.00,,,0.00,,2013-08-26 13:12:00,
2013-08-26 09:22:00,64.0,62.0,30.22,ENE,60,0.0,0.0,94,0.00,,,0.00,,2013-08-26 13:22:00,
2013-08-26 09:52:00,68.0,63.0,30.22,ENE,60,0.0,0.0,83,0.00,,,0.00,,2013-08-26 13:52:00,
2013-08-26 10:22:00,70.0,62.0,30.22,NNW,336,0.0,0.0,77,0.00,,,0.00,,2013-08-26 14:22:00,
2013-08-26 10:42:00,72.0,62.0,30.23,NNW,330,0.0,0.0,72,0.00,,,0.00,,2013-08-26 14:42:00,
2013-08-26 10:52:00,73.0,62.0,30.22,NW,316,0.0,0.0,69,0.00,,,0.00,,2013-08-26 14:52:00,
2013-08-26 11:12:00,73.0,60.0,30.22,NW,320,0.0,0.0,64,0.00,,,0.00,,2013-08-26 15:12:00,
2013-08-26 11:22:00,73.0,61.0,30.22,NW,307,0.0,0.0,65,0.00,,,0.00,,2013-08-26 15:22:00,
2013-08-26 11:47:00,74.0,61.0,30.22,NNW,329,0.0,0.0,64,0.00,,,0.00,,2013-08-26 15:47:00,
2013-08-26 11:59:00,75.0,58.0,30.21,NNE,22,0.0,0.0,56,0.00,,,0.00,,2013-08-26 15:59:00,
2013-08-26 12:29:00,77.0,60.0,30.20,NNW,334,0.0,0.0,55,0.00,,,0.00,,2013-08-26 16:29:00,
2013-08-26 12:59:00,78.0,59.0,30.19,NW,324,0.0,1.0,53,0.00,,,0.00,,2013-08-26 16:59:00,
2013-08-26 13:24:00,79.0,59.0,30.18,SW,214,0.0,0.0,51,0.00,,,0.00,,2013-08-26 17:24:00,
2013-08-26 13:53:00,80.0,59.0,30.17,SSW,207,0.0,0.0,49,0.00,,,0.00,,2013-08-26 17:53:00,
2013-08-26 14:12:00,81.0,58.0,30.16,South,170,0.0,0.0,46,0.00,,,0.00,,2013-08-26 18:12:00,
2013-08-26 14:22:00,81.0,59.0,30.16,NNE,33,0.0,0.0,48,0.00,,,0.00,,2013-08-26 18:22:00,
2013-08-26 14:52:00,81.0,60.0,30.15,NNW,340,0.0,0.0,49,0.00,,,0.00,,2013-08-26 18:52:00,
2013-08-26 15:11:00,82.0,60.0,30.14,NNW,343,0.0,0.0,47,0.00,,,0.00,,2013-08-26 19:11:00,
2013-08-26 15:22:00,83.0,59.0,30.12,South,188,0.0,0.0,45,0.00,,,0.00,,2013-08-26 19:22:00,
2013-08-26 15:52:00,82.0,59.0,30.12,SSW,209,0.0,1.0,45,0.00,,,0.00,,2013-08-26 19:52:00,
2013-08-26 16:11:00,82.0,57.0,30.11,SW,226,0.0,1.0,43,0.00,,,0.00,,2013-08-26 20:11:00,
2013-08-26 16:22:00,83.0,60.0,30.10,SE,144,0.0,1.0,46,0.00,,,0.00,,2013-08-26 20:22:00,
2013-08-26 16:43:00,82.0,59.0,30.10,SSW,213,0.0,1.0,45,0.00,,,0.00,,2013-08-26 20:43:00,
2013-08-26 16:52:00,83.0,58.0,30.09,WSW,237,0.0,1.0,42,0.00,,,0.00,,2013-08-26 20:52:00,
2013-08-26 17:22:00,83.0,58.0,30.09,SSW,195,0.0,5.0,43,0.00,,,0.00,,2013-08-26 21:22:00,
2013-08-26 17:55:00,82.0,57.0,30.07,South,187,0.0,0.0,42,0.00,,,0.00,,2013-08-26 21:55:00,
2013-08-26 18:16:00,81.0,55.0,30.08,SW,226,1.0,3.0,41,0.00,,,0.00,,2013-08-26 22:16:00,
2013-08-26 18:26:00,79.0,55.0,30.08,NW,321,0.0,3.0,44,0.00,,,0.00,,2013-08-26 22:26:00,
2013-08-26 18:53:00,78.0,57.0,30.07,WSW,253,0.0,0.0,48,0.00,,,0.00,,2013-08-26 22:53:00,
2013-08-26 19:22:00,77.0,57.0,30.06,WSW,253,0.0,0.0,51,0.00,,,0.00,,2013-08-26 23:22:00,
2013-08-26 19:52:00,74.0,58.0,30.06,WSW,253,0.0,0.0,57,0.00,,,0.00,,2013-08-26 23:52:00,
2013-08-26 20:21:00,71.0,59.0,30.06,WSW,253,0.0,0.0,65,0.00,,,0.00,,2013-08-27 00:21:00,
2013-08-26 20:52:00,68.0,59.0,30.06,WSW,253,0.0,0.0,74,0.00,,,0.00,,2013-08-27 00:52:00,
2013-08-26 21:22:00,66.0,60.0,30.06,WSW,253,0.0,0.0,80,0.00,,,0.00,,2013-08-27 01:22:00,
2013-08-26 21:52:00,65.0,60.0,30.06,WSW,253,0.0,0.0,84,0.00,,,0.00,,2013-08-27 01:52:00,
2013-08-26 22:22:00,64.0,60.0,30.06,WSW,253,0.0,0.0,86,0.00,,,0.00,,2013-08-27 02:22:00,
2013-08-26 22:52:00,64.0,61.0,30.06,WSW,253,0.0,0.0,89,0.00,,,0.00,,2013-08-27 02:52:00,
2013-08-26 23:23:00,63.0,60.0,30.06,WSW,253,0.0,0.0,90,0.00,,,0.00,,2013-08-27 03:23:00,
2013-08-26 23:44:00,62.0,59.0,30.06,WSW,253,0.0,0.0,91,0.00,,,0.00,,2013-08-27 03:44:00,
2013-08-26 23:58:00,62.0,60.0,30.06,WSW,253,0.0,0.0,92,0.00,,,0.00,,2013-08-27 03:58:00,